La Barousse Balès - 07/08/2011

Cyclosportive 118 Km


Pl Do. Nom - Surname Prénom - Name S-Cat /cat Club - Team TEMPS - Time Km/h /sx
1 636 COUTINHO AUGUSTE MC 1 LUCHON LOURON CYCLISME 03:42:28 31,8 1
2 404 SAVE JÉROME MB 1 AS L'UNION TRIATHLON 03:45:07 31,5 2
3 389 MARROT PATRICK MC 2 TEAM BAROUSSE 65 03:47:20 31,1 3
4 457 FRITSCHMANN GILLES MB 2 CO CARBONNE CYCLISME 03:47:20 31,1 4
5 621 FILLEAU FRANÇOIS MA 1 REVEL SPRINTER CLUB 03:47:21 31,1 5
6 420 CAUBET NICOLAS MA 2 UV LECTOURE 03:47:21 31,1 6
7 610 LAVOINE NICOLAS MB 3 NL 03:51:26 30,6 7
8 549 DAFFOS EMMANUEL MC 3 DEJANTES 65 03:52:03 30,5 8
9 639 BARRÈRE VINCENT MB 4 LE FOUSSERET 03:52:04 30,5 9
10 430 GILLET ROMUALD MC 4 AC LES TOURRETTES 03:59:13 29,6 10
11 640 MIEYAN FRANCK MC 5 GOURDAN POLIGNAN CYCLISTE 03:59:13 29,6 11
12 414 CALLAC DE GASPÉRIS XAVIER MB 5 UVA AUCH GERS 03:59:17 29,6 12
13 429 CROUZET GESTON MD 1 LUCHON LOURON CYCLISME 04:00:23 29,5 13
14 637 SENGES THIERRY MC 6 LE FOUSSERET 04:00:24 29,5 14
15 559 BOISSE PASCAL MB 6 NL 04:01:00 29,4 15
16 622 CABOS HUGUES MB 7 AC BAGNÈRES 04:01:01 29,4 16
17 391 ESPOUY GILLES MC 7 TEAM BAROUSSE 65 04:01:01 29,4 17
18 346 PAVAN MICKAEL MA 3 LUCHON LOURON CYCLISME 04:01:02 29,4 18
19 522 CHARLES DAVID MB 8 NL 04:01:09 29,4 19
20 366 DEGEORGE PIERRE MA 4 NL 04:04:59 28,9 20
21 375 SAJAS PATRICK MC 8 St-GO CYCLISME CGES 04:04:59 28,9 21
22 365 BARRERE LAURENT MB 9 AS LE FOUSSERET 04:05:00 28,9 22
23 315 COUTURET LAURENT MC 9 ET LONGAGES ESPOIR CYCLISTE 04:05:00 28,9 23
24 501 MATHIEU DIDIER MC 10 NL 04:05:01 28,9 24
25 614 BEAUCOUESTE CHRISTIAN MC 11 CC LOURDES 04:05:03 28,9 25
26 613 BARTHE FRANÇOIS MB 10 CO CARBONNE CYCLISME 04:09:09 28,4 26
27 602 MINET MARC MB 11 TC COINCY METZ 04:09:10 28,4 27
28 618 LANNES DAVID MB 12 NL 04:09:11 28,4 28
29 477 BERNAGOU JEAN-MARC MD 2 US REQUISTA 04:09:12 28,4 29
30 386 GARTNER FREDRIC MB 13 NL 04:11:51 28,1 30
31 433 ANTONIOU BENOIT MB 14 St-MEDARD SPORTS LOISIRS 04:11:51 28,1 31
32 634 BLANQUIER DORIAN MA 5 MONTREJEAU CYCLO CLUB 04:11:51 28,1 32
33 578 BROTHIER MARCEL MD 3 AC POUSSAN 04:11:52 28,1 33
34 467 LONCKE CHRISTIAN MD 4 AS VILLEMUR 04:11:52 28,1 34
35 409 RIVA SERGE MC 12 CYCLO VTT FLEURANCE 04:11:52 28,1 35
36 599 DUPUY FLORIAN MA 6 NL 04:11:53 28,1 36
37 585 BARRIEN PATRICK MD 5 AC BAGNÈRES BIGORRE 04:11:53 28,1 37
38 358 DUBOSC CHRISTIAN MC 13 CC PYRENEEN 04:11:54 28,1 38
39 374 FRANTZ MICHEL MC 14 GOURDON CYCLISME 04:11:55 28,1 39
40 338 IHIDOY XABI MA 7 URT VÉLO 64 04:11:56 28,1 40
41 605 ROUSSE CÉDRIC MA 8 CS BASE AÉRIENNE 04:11:57 28,1 41
42 397 RICCI JEAN-BERNARD MC 15 AS MATRA TOULOUSE 04:11:58 28,1 42
43 398 ROGER STÉPHAN MB 15 AS MATRA TOULOUSE 04:12:07 28,1 43
44 448 LAGASSE GUILLAUME MA 9 TEAM ANDOUARD ROTOR 04:12:15 28,1 44
45 480 AUXERRE ALAIN ME 1 AL L'ETOILE 04:16:10 27,6 45
46 564 VEGA LAMPS JOSEP MANEL MB 16 LUCHON LOURON CYCLISME 04:17:37 27,5 46
47 382 FERRE GILLES MD 6 LUCHON LOURON CYCLISME 04:17:38 27,5 47
48 322 HALL STEVEN MC 16 UV LOURDES 04:17:39 27,5 48
49 460 MONTASTRUC LUDOVIC MB 17 AMICALE CYCLO ESCALQUENS 04:17:40 27,5 49
50 443 BOUBE FRANCIS MD 7 AS CYCLISTE LE FOUSSERET 04:17:40 27,5 50
51 591 MOSSON GEOFFROY MB 18 NL 04:17:41 27,5 51
52 339 GARROUSTE THIERRY MC 17 CASTELANU CYCLO CLUB 04:19:08 27,3 52
53 390 VIROLEAU PIERRE MA 10 TEAM BAROUSSE 65 04:22:18 27,0 53
54 306 BLANC YVAN ME 2 ALBI VELO SPORT 04:22:19 27,0 54
55 565 LAURENT STÉPHANE MB 19 R VTT 04:22:19 27,0 55
56 402 LUCAT NICOLAS MB 20 CouSERANS CYCLISTE 04:22:23 27,0 56
57 466 LONCKE JÉRÔME MB 21 EC TOURQUENNOISE 04:23:12 26,9 57
58 445 CAMUS JEAN-MARC MD 8 NL 04:23:13 26,9 58
59 624 BORIE PIERRE MA 11 MONTREJEAU CYCLO CLUB 04:23:18 26,9 59
60 493 RANÇON FRANÇOIS MC 18 NL 04:23:21 26,9 60
61 631 BAILLET LAURENT MC 19 EUGÉNIE LES BAINS 04:23:22 26,9 61
62 345 D'ANGELO DAMIEN MA 12 NL 04:25:35 26,7 62
63 368 GONCALVES GILLES MC 20 CABE 47 04:25:42 26,6 63
64 590 MOSSON AURÉLIEN MB 22 NL 04:25:44 26,6 64
65 543 BAILLY ALAIN MC 21 TEAM CHARTRES CYCLO 04:25:46 26,6 65
66 370 CLAVERIE MICKAEL MA 13 LA ROUE D'OR MOURENX 04:25:46 26,6 66
67 612 CIBAT GUY MD 9 AC BAGNÈRES BIGORRE 04:25:47 26,6 67
68 436 CELLA CHRISTOPHE MC 22 NL 04:25:47 26,6 68
69 554 GUERINEAUD ALAIN ME 3 MERIGNAC VÉLO CLUB 04:25:47 26,6 69
70 468 TORRESIN STÉPHANE MB 23 NL 04:25:48 26,6 70
71 342 RAYNAUD NICOLAS MB 24 NL 04:25:48 26,6 71
72 484 MESSAGER ALAIN ME 4 NL 04:25:48 26,6 72
73 625 CESSES GILLES MD 10 PINSAGUEL 04:25:49 26,6 73
74 465 VERFAILLIE ALEXIS MA 14 NL 04:25:49 26,6 74
75 627 POUGET JEAN ME 5 UNION VÉLO CIPÈDE 04:25:50 26,6 75
76 620 TISTOUNET JÉRÖME MB 25 MONTREJEAU CYCLO CLUB 04:25:50 26,6 76
77 555 LETORD CHRISTIAN ME 6 US BAZAS OMNISPORT 04:25:50 26,6 77
78 563 CAPITAINE EDDY MB 26 VC LES MUREAUX 04:25:50 26,6 78
79 616 LACROIX LUDOVIC MB 27 ROUE LIBRE 04:25:51 26,6 79
80 609 AIROLDI LAURENT MB 28 CC LUSSAN 04:25:52 26,6 80
81 628 CASTET PIERRE MB 29 CLUB OLYMPIQUE CARBONNAIS 04:25:53 26,6 81
82 529 LONGEAUX NICOLAS MC 23 MONTREJEAU CYCLO CLUB 04:25:59 26,6 82
83 506 LOUBET JEAN-BERTRAND MB 30 St-GO CYCLISME CGES 04:26:08 26,6 83
84 331 GREGOIRE PHILIPPE MC 24 GUIDON FUXÉEN 04:32:19 26,0 84
85 330 ESCAICH GENEVIEVE FW3 1 GUIDON FUXÉEN 04:32:19 26,0 1
86 469 FALCOU ALAIN MC 25 AS CYCLISME 04:32:20 26,0 85
87 373 JUCHTZER HERVE MD 11 JSO ODOS 04:32:21 26,0 86
88 595 BRANDAM GEORGES MD 12 C C PONTARQUAIS 04:34:03 25,8 87
89 408 BRICARD DAVID MB 31 NL 04:34:06 25,8 88
90 388 ROURA EDOUARD MD 13 Muret AS CYCLISME 04:34:06 25,8 89
91 494 GUILLON PHILIPPE MD 14 CPRS PINS JUSTARET VILLATE 04:34:07 25,8 90
92 547 DAFFOS DAVID MC 26 DEJANTES 65 04:35:48 25,7 91
93 499 SAGANSAN CEDRIC MC 27 NL 04:35:48 25,7 92
94 439 CAZAËNTRE JOËL MD 15 NL 04:35:51 25,7 93
95 507 SALSON BERNARD ME 7 NL 04:35:51 25,7 94
96 341 RAYNAUD EMMANUEL MA 15 NL 04:35:51 25,7 95
97 416 DESPORTES FABRICE MA 16 NL 04:35:51 25,7 96
98 394 STANHOPE RICHARD MD 16 NL 04:35:52 25,7 97
99 313 THAIS LAURENT MC 28 NL 04:35:52 25,7 98
100 633 GABASTON PATRICK MC 29 SpORT LOISIRS EUGÉNOIS 04:35:53 25,7 99
101 561 BERNADET PATRICK MD 17 MONTREJEAU CYCLO CLUB 04:35:53 25,7 100
102 518 LAHOUSE JEAN-MARIE MD 18 NL 04:35:53 25,7 101
103 444 TENSOU DENIS MB 32 NL 04:35:54 25,7 102
104 525 MENUZZO TINO ME 8 AMICALE DE PECHBONNIEU 04:35:54 25,7 103
105 447 SCHNEIDER JÉRÔME MB 33 NL 04:35:54 25,7 104
106 387 JAMES ROBERT MD 19 PASS'CYCLOSPORTIVE 04:35:57 25,7 105
107 629 DIANA THIERRY MC 30 NL 04:36:01 25,7 106
108 329 ALBAR JEROME MB 34 EMPALOT VELO CLUB 04:36:34 25,6 107
109 619 ROHRBACHER ANDRÉ MD 20 NL 04:38:06 25,5 108
110 533 STEPHEN NICHELOS MB 35 NL 04:38:14 25,4 109
111 527 BEN ABDESLEM ME 9 SC ARLES 04:38:15 25,4 110
112 526 WRIGHT AIMÉE FW1 1 PYRÉNÉES MULTISPORT 04:38:15 25,4 2
113 556 FERNANDEZ NICOLAS MB 36 CPRS PINS JUSTARET VILLATE 04:38:15 25,4 111
114 328 PROVENZANO JEAN-BAPTISTE MA 17 NL 04:38:16 25,4 112
115 418 BESSON BRUNO MD 21 CC PYRENEEN 04:38:16 25,4 113
116 508 LABORDE JEAN MD 22 NL 04:38:55 25,4 114
117 569 ESQUERRE JEAN-FRANÇOIS MB 37 NL 04:40:21 25,3 115
118 318 MILHORAT YANNICK MB 38 NL 04:40:25 25,2 116
119 534 BETH PHILIPPE MD 23 NL 04:43:13 25,0 117
120 425 CASTET PHILIPPE MC 31 NL 04:43:14 25,0 118
121 615 SABATIER PASCAL MC 32 ASS FOUSSERET 04:43:34 25,0 119
122 611 GONCALVES SÉBASTIEN MB 39 NL 04:43:34 25,0 120
123 431 ABELLAN GEORGES MD 24 CPRS PINS JUSTARET VILLATE 04:43:35 25,0 121
124 523 BARRAUD MICHEL MD 25 AL GOND PONTOUVRE 04:43:36 25,0 122
125 558 MONNIER SERGE MD 26 VCS SAUVETERRE DE BÉARN 04:43:37 25,0 123
126 462 MONTANÉ ALAIN MC 33 ASS CYCLISTE SALIES 04:43:37 25,0 124
127 635 LABIDALLE JEAN-CLAUDE MD 27 EUGÉNIE LES BAINS 04:43:37 25,0 125
128 632 CHATELUT ETIENNE MC 34 NL 04:43:56 24,9 126
129 580 UHALDE PATRICE MB 40 URT VÉLO 64 04:43:56 24,9 127
130 421 DIMBARBE MICHEL ME 10 AS PYRÉNÉENNE 04:44:05 24,9 128
131 641 MANDLER YORG MB 41 NL 04:44:07 24,9 129
132 403 ARNÉ SERGE MC 35 NL 04:44:07 24,9 130
133 304 CARLIER ALEXANDRE MA 18 NL 04:44:34 24,9 131
134 487 CASSEGRAIN GILBERT MD 28 NL 04:45:58 24,8 132
135 326 CHARBONNIER JOEL MB 42 CC PYRENEEN 04:46:15 24,7 133
136 514 BERLANO LUC MC 36 St-GO CYCLISME CGES 04:46:37 24,7 134
137 357 LOUP CHRISTIAN MB 43 NL 04:46:37 24,7 135
138 607 CHANTAL ALAIN ME 11 TOULOUSE CYCLO CLUB LARDENNE 04:49:01 24,5 136
139 588 DEMAGALHAES HENRIQUE MC 37 MAUVEZIN 04:49:02 24,5 137
140 515 LOIRET BRUNO MC 38 CS MANZAT 04:49:03 24,5 138
141 437 BOUSQUET ERICK MC 39 NL 04:49:04 24,5 139
142 630 FERRARIS JACQUES MC 40 CPRS PINS JUSTARET VILLATE 04:49:05 24,5 140
143 454 MONTARIOL MICHEL MC 41 StE FOY PEYROLIÈRES 04:49:05 24,5 141
144 502 BORDIER GERARD ME 12 UNION CYLISTE CAMPAN VALLEE 04:49:05 24,5 142
145 372 LARRIEU JEAN-MICHEL MD 29 CC SAVE MONTEGUT ST-PAUL 04:49:05 24,5 143
146 401 ACAP RÉMY MD 30 CouSERANS CYCLISTE 04:49:07 24,5 144
147 463 TOULOUSE SÉBASTIEN MB 44 US FRONTON 04:49:09 24,5 145
148 540 SABATIER BERTRAND MD 31 FREESCALE 04:50:18 24,4 146
149 377 BIRMES PHILIPPE MC 42 NL 04:51:14 24,3 147
150 349 JANSSENS AURELIEN MA 19 NL 04:51:17 24,3 148
151 348 LAJUS PASCAL MB 45 ANRAS SPORTING CLUB 04:51:17 24,3 149
152 479 CAUCHOIS MARTIAL MD 32 ASS CYCLISTE CEMPUIS 04:51:17 24,3 150
153 604 COUDERT ROMAIN MA 20 NL 04:51:30 24,3 151
154 453 BACON ROLAND MD 33 CC PYRENEEN 04:52:49 24,2 152
155 470 SAVARY JEAN-BERNARD MD 34 CC PYRENEEN 04:52:50 24,2 153
156 350 MAURIEGE ANDRE ME 13 NL 04:52:50 24,2 154
157 638 DEL CORRAL JEAN PIERRE MC 43 NL 04:52:51 24,2 155
158 567 BRARD MICHEL MD 35 GUIDON PORTÉSIEN 04:52:53 24,2 156
159 520 CHAUBARD SERGE MD 36 MONTREJEAU CYCLO CLUB 04:52:54 24,2 157
160 312 GUY PASCAL MC 44 PEDALE SAINT-FLORENTAISE 04:52:55 24,2 158
161 360 LABEL SERGE ME 14 AC BLANC MESNILOISE 04:53:21 24,1 159
162 593 RUFFIE GUILLAUME MA 21 NL 04:54:42 24,0 160
163 504 MORENO JOAKIM ME 15 MONTREJEAU CYCLO CLUB 04:54:45 24,0 161
164 471 LEGRAS PATRICK MC 45 NL 04:54:46 24,0 162
165 570 BOYER ALAIN ME 16 VC MAUVEZINOIS 04:54:47 24,0 163
166 586 LITZINGER JEAN-MARIE MD 37 MAUVEZIN 04:54:47 24,0 164
167 562 BLANC J. PHILIPPE ME 17 FouSSERET AS CYCLISTE 04:54:48 24,0 165
168 617 LACROIX JÉRÖME MB 46 ROUE LIBRE 04:54:48 24,0 166
169 535 RUFFI2 JEAN MD 38 VÉLO CLUB CUGNAUX 04:54:49 24,0 167
170 536 LACOMBE RICHARD MD 39 St-GO CYCLISME CGES 04:54:49 24,0 168
171 417 REVERCHON GUY ME 18 CouSERANS CYCLISTE 04:54:49 24,0 169
172 351 SELLES PHILIPPE MC 46 CPRS 04:54:50 24,0 170
173 405 ANGELO ANTOINE ME 19 NL 04:54:51 24,0 171
174 594 DURAND NATTHIEU MA 22 NL 04:54:51 24,0 172
175 626 PASCAU JOËL MA 23 NL 04:54:51 24,0 173
176 592 SOULIÉ PHILIPPE MB 47 MONTREJEAU CYCLO CLUB 04:54:52 24,0 174
177 491 LASSUS JEAN-PIERRE MC 47 St-GO CYCLISME CGES 04:54:52 24,0 175
178 325 FOURNIER ALAIN MD 40 SaINT-LEZER SPORT DETENTE 05:00:06 23,6 176
179 303 PEREZ BERNARD ME 20 CoLOGNE CYCLISTE 05:00:06 23,6 177
180 530 SOULÉ GUILLAUME MA 24 MONTREJEAU CYCLO CLUB 05:00:46 23,5 178
181 571 SPEECKAERT PHILIPPE MD 41 NL 05:01:00 23,5 179
182 353 CABROL JEAN-PIERRE MD 42 NL 05:01:05 23,5 180
183 512 GONZALEZ FREDÉRIC MC 48 NL 05:01:06 23,5 181
184 456 PAPIOL HERVÉ MC 49 NL 05:01:06 23,5 182
185 531 SOULÉ JULIEN MA 25 MONTREJEAU CYCLO CLUB 05:01:08 23,5 183
186 379 RESSIER GERARD ME 21 LABARTHE CYCLO 05:01:09 23,5 184
187 589 MAS JEAN LUC MC 50 LA ROUE LIBRE HUOSSAISE 05:02:43 23,4 185
188 503 DUFOUR HENRI ME 22 NL 05:02:51 23,4 186
189 324 BROW SUSAN FW2 1 NL 05:02:52 23,4 3
190 532 JAILLET HERVÉ MB 48 NL 05:02:56 23,4 187
191 308 DE OLIVEIRA FREDERIC MC 51 NL 05:03:00 23,4 188
192 572 DAURY PASCAL MC 52 UC MIMIZAN 05:03:16 23,3 189
193 544 BAGNERIS CHRISTEL FW1 2 CoMMINGES TRIATHLON 05:07:27 23,0 4
194 361 GOUDIN MAXIME MA 26 CYCLO VTT FLEURANCE 05:07:27 23,0 190
195 410 CARRERE CHRISTOPHE MB 49 NL 05:07:27 23,0 191
196 550 VIZCAY ROBERT MC 53 DEJANTES 65 05:07:27 23,0 192
197 542 LAMARQUE CHRISTIAN MD 43 BALMA OC 05:07:28 23,0 193
198 376 LAVOLLEE ARNAUD MB 50 AVENIR FONSORBAIS 05:07:28 23,0 194
199 608 JAUNET CLAIRE FW1 3 CC LOURDAIS 05:07:28 23,0 5
200 551 IORFIDA MICHEL MC 54 AUTRE 05:07:28 23,0 195
201 537 DESTRUEL JEAN-FRANÇOIS MD 44 MONTREJEAU CYCLO CLUB 05:07:28 23,0 196
202 568 RICARD PATRICK MD 45 NL 05:07:28 23,0 197
203 362 COMBALDIEU ERIC MD 46 NL 05:07:29 23,0 198
204 575 BALFOUR CHRIS MC 55 PYRACTIF CC 05:07:29 23,0 199
205 344 DELMAS CHRISTIAN MC 56 VC VILLEFRANCHOIS 05:07:31 23,0 200
206 332 TIREAU AUGUSTE MD 47 NL 05:07:32 23,0 201
207 576 BALFOUR HELEN FW1 4 PYRACTIF CC 05:07:32 23,0 6
208 363 CAZALA DEMIEN MA 27 VTT CLUB AUROIS 05:07:34 23,0 202
209 440 BONNEAU PIERRE MD 48 NL 05:11:51 22,7 203
210 367 DESPAUX DENIS MB 51 NL 05:13:31 22,6 204
211 538 BONNEMAISON LAURENT MC 57 CSAG PAYS DE LOIRE 05:14:03 22,5 205
212 546 PUJO GILLES MB 52 NL 05:14:39 22,5 206
213 317 GATIMEL JEAN-PIERRE ME 23 ALBI VELO SPORT 05:14:40 22,5 207
214 601 BUZY HENRI MD 49 ASC PONTACQ 05:14:41 22,5 208
215 574 COSTE JOSÉ MD 50 VC MORLAAS 05:14:42 22,5 209
216 483 PEAU MICHEL MD 51 NL 05:14:44 22,5 210
217 458 RUEFF LAURENT MC 58 NL 05:14:48 22,5 211
218 489 VEGA CYRILLE MB 53 LABARTHE CYCLO 05:14:56 22,5 212
219 396 NONY FRANCK MC 59 AS MATRA TOULOUSE 05:20:18 22,1 213
220 539 NOGUES FRANÇOIS MA 28 NL 05:20:27 22,1 214
221 516 VEILLET BRIGITTE FW2 2 NL 05:20:28 22,1 7
222 334 MARKHAM ANDREW MC 60 BRITISH CYCLING FEDERATION 05:20:31 22,1 215
223 415 GUIU BERNARD MC 61 NL 05:20:32 22,1 216
224 596 BENGUÉ HENTI ME 24 NL 05:20:34 22,1 217
225 545 LARREGOLA ERIC MB 54 CoMMINGES TRIATHLON 05:24:44 21,8 218
226 352 CABROL YANNICK MA 29 NL 05:26:08 21,7 219
227 490 BANDINELLI ERIC MD 52 NL 05:26:25 21,7 220
228 449 VIAND RÉGIS MB 55 NL 05:27:13 21,6 221
229 406 CALMEL PHILIPPE MD 53 CPRS PINS JUSTARET VILLATE 05:27:14 21,6 222
230 385 DASSIEU MICHEL MD 54 SpLACH L'ISLE EN JOURDAIN 05:27:14 21,6 223
231 378 KIESER MICHEL MD 55 NL 05:27:15 21,6 224
232 519 CHAUBARD CHRISTOPHE MB 56 LES CYCLOS TORNEFEUILLE 05:27:16 21,6 225
233 498 DASTE PIERRE-YVES MD 56 NL 05:29:23 21,5 226
234 393 MONS CELINE FW1 5 TEAM BAROUSSE 65 05:29:53 21,5 8
235 356 DUCOS JULIE FW1 6 CYCLO CLUB SAVERDUN 05:29:53 21,5 9
236 492 DUCOS JEAN-CLAUDE MD 57 CouSERANS CYCLISTE 05:29:55 21,5 227
237 347 MAZET CHRISTOPHE MB 57 CYCLO CLUB SAVERDUN 05:29:56 21,5 228
238 476 LAGORCE BERNARD MD 58 Muret AS CYCLISME 05:29:59 21,5 229
239 566 TODESCHI JEAN-NOËL MB 58 AVENIR CYCLISTE RABASTINOIS 05:30:00 21,5 230
240 323 BROWN MARTIN MD 59 NL 05:30:01 21,5 231
241 383 MARTINEZ THIERRY MC 62 SpRINTER CLUB CAZERES 05:36:21 21,0 232
242 475 ANGOT PASCAL MD 60 Muret AS CYCLISME 05:36:22 21,0 233
243 472 SUDERIE ROBERT MC 63 C SA MURET 05:36:23 21,0 234
244 411 CARCAUZON GUY MD 61 EC RIBERAC PERIGORD 05:36:24 21,0 235
245 412 ETIENNE JACQUES ME 25 UC MIMIZAN 05:37:26 21,0 236
246 327 BRISBART THIERRY MB 59 VC MAUVEZINOIS 05:37:28 21,0 237
247 428 SENTENAC CHRISTOPHE MB 60 VELO CLUB DU CANTON ASPET 05:37:29 21,0 238
248 524 LARROQUANT JOSEPH ME 26 GrENADE CYCLO SPORT 05:37:33 21,0 239
249 603 NERGEL YVON ME 27 CC PONTACQUAIS 05:37:34 21,0 240
250 511 DUMON MAURICE MD 62 LUCHON HAUTE MONTAGNE 05:38:25 20,9 241
251 553 MABRU PATRICK MD 63 AUTRE 05:38:33 20,9 242
252 552 NENCIONI ROBERT MC 64 AUTRE 05:38:50 20,9 243
253 381 LESCOS JEAN-BERNARD MD 64 UC LE HAILLAN-ST-MEDARD 05:38:55 20,9 244
254 371 CHARLES YVES MC 65 SaUBENS CYCLO 05:41:28 20,7 245
255 446 BEYRIA YVES MC 66 SaUBENS CYCLO 05:41:29 20,7 246
256 422 MARTY CÉDRIC MB 61 SaUBENS CYCLO 05:42:02 20,7 247
257 441 PAUL MARC MC 67 SaUBENS CYCLO 05:42:03 20,7 248
258 302 PREPOGNOT BERNARD ME 28 SaUBENS CYCLO 05:42:03 20,7 249
259 438 MACHEVIN CLAUDE MD 65 SaUBENS CYCLO 05:42:04 20,7 250
260 369 GURY GILLES MD 66 NL 05:42:05 20,7 251
261 380 LARIE JOSEPH MD 67 NL 05:43:54 20,6 252
262 333 MARKHAM TIM MC 68 BRITISH CYCLING FEDERATION 05:45:27 20,5 253
263 521 BARTHE PHILIPPE MB 62 NL 05:51:36 20,1 254
264 355 VALENTE NICOLAS MA 30 NL 05:53:38 20,0 255
265 496 CAZENEUVE DAMIEN MA 31 NL 05:53:38 20,0 256
266 450 BOUDON JÉRÉMIE MA 32 NL 05:53:38 20,0 257
267 528 JONES MIKE MD 68 PEAK TIMES 05:57:24 19,8 258
268 497 MALEPLATE MAURICE ME 29 NL 05:58:04 19,8 259
269 395 FLEMIN CHRISTIAN MC 69 AS MATRA TOULOUSE 06:02:12 19,5 260
270 419 BESSON JACQUELINE FW3 2 CC PYRENEEN 06:02:14 19,5 10
271 517 CAMPISTRO LEON MD 69 MONTREJEAU CYCLO CLUB 06:02:15 19,5 261
272 399 MAS JEAN-DOMINIQUE MD 70 SaIGUEDE VELO CLUB 06:08:21 19,2 262
273 316 BERTIN XAVIER MB 63 CYCLO CLUB SAIGUEDE 06:08:22 19,2 263
274 474 MARESTANS JEAN-LOUIS MD 71 NL 06:14:43 18,9 264
275 337 VERBEKE CHRISTOPHE MD 72 WIELERBOND VLAANDEREN 06:19:02 18,7 265
276 354 YOUNG GRANT MB 64 NL 06:27:16 18,3 266
277 606 HAUCHARD JOËL ME 30 TOULOUSE CYCLO CLUB LARDENNE 06:46:55 17,4 267
278 642 DEMIGUEL GÉRARD MD 73 St-GO CYCLISME CGES 06:49:37 17,3 268
279 488 DELMAS DOMINIQUE MD 74 USC COLOMIERS 06:51:49 17,2 269
280 314 DUPRAT MICHEL MD 75 NL 06:54:21 17,1 270
281 392 BOIS PASCAL MC 70 TEAM BAROUSSE 65 06:54:23 17,1 271
282 301 VERLYCK PHILIPPE MD 0 FoN ROMEU CYCLISTE 00:00:00 Abd Abd
283 305 VALVERDE JOSEPH MC 0 RANDO NARBONNAIS 00:00:00 Abd Abd
284 459 SIFFRE JEAN-MARIE MB 0 CLUB NEUTRE 00:00:00 Abd Abd
285 509 TEXIER DAMIEN MB 0 VTT METTRAY 00:00:00 Abd Abd
286 510 GIGOUT JEAN-CLAUDE ME 0 TOULOUSE CYCLO CLUB LARDENNE 00:00:00 Abd Abd
287 541 FERRARONI JEROME MB 0 CYCLO CLUB DES VIOLETTES 00:00:00 Abd Abd
288 587 COCHEZ MARCEL ME 0 EMPALOT VELO CLUB 00:00:00 Abd Abd
289 597 POUEYMIRO ELIANE FW2 0 C C PONTARQUAIS 00:00:00 Abd Abd
290 598 POUEYMIRO RICHARD MC 0 C C PONTARQUAIS 00:00:00 Abd Abd
291 600 RUSENEAU ANGEL MA 0 NL 00:00:00 Abd Abd